Location: Hodgeman County Ambulance
(38.0844°N, 99.8949°W)
Time: 14:11:34
(UTC+00:00)

Cosmos 407 Rocket - Pass Details

Date: 27 October 2020
Orbit: 743 x 787 km, 74.1° (Epoch: 03 December)

Event Time Altitude Azimuth Distance (km) Brightness Sun altitude
Rises 12:00:57 0° 190° (S) 3,165 6.7 -12.4°
Reaches altitude 10° 12:03:18 10° 187° (S) 2,246 5.9 -11.9°
Maximum altitude 12:08:20 68° 106° (ESE) 800 3.8 -10.9°
Drops below altitude 10° 12:13:27 10° 23° (NNE) 2,275 6.1 -9.9°
Sets 12:15:50 0° 21° (NNE) 3,208 6.9 -9.5°
